Weather History for Parnaiba Aeroporto, Brazil

Change the Weather History Date:

Saturday, June 22, 2013

  Actual Average Record
Temperature  
Mean Temperature 84 °F -  
Max Temperature 91 °F - - ()
Min Temperature 77 °F - - ()
Cooling Degree Days 19    
Growing Degree Days 34 (Base 50)    
Moisture  
Dew Point 75 °F    
Average Humidity 76    
Maximum Humidity 89    
Minimum Humidity 59    
Precipitation  
Precipitation 0.00 in - - ()
Sea Level Pressure  
Sea Level Pressure 29.91 in    
Wind  
Wind Speed 6 mph ()    
Max Wind Speed 13 mph    
Max Gust Speed -    
Visibility 6.2 miles    
Events Thunderstorm    
T = Trace of Precipitation, MM = Missing Value Source: Averaged Metar Reports

Daily Weather History Graph

Daily Weather History Graph

Search for Another Location

Airport:

Trip Planner

Search our weather history database for the weather conditions in past years. The results will help you decide how hot, cold, wet, or windy it might be!

Date:

Astronomy

Jun. 22, 2013 Rise Set
Actual Time 5:50 AM BRT 5:47 PM BRT
Civil Twilight 5:27 AM BRT 6:10 PM BRT
Nautical Twilight 5:01 AM BRT 6:36 PM BRT
Astronomical Twilight 4:35 AM BRT 7:02 PM BRT
Moon 5:06 PM BRT (6/22) 4:42 AM BRT (6/22)
Length of Visible Light 12h 42m
Length of Day
11h 57m
Waxing Gibbous, 99% of the Moon is Illuminated
Jun 22
Waxing Gibbous
Jun 23
Full
Jun 30
Last Quarter
Jul 8
New
Jul 16
First Quarter

Hourly Weather History & Observations

Time (BRT) Temp. Heat Index Dew Point Humidity Pressure Visibility Wind Dir Wind Speed Gust Speed Precip Events Conditions
12:00 AM 80.6 °F 86.2 °F 75.2 °F 84% 29.92 in 6.2 mi East 5.8 mph - N/A   Scattered Clouds
6:15 AM 77.0 °F - 73.4 °F 89% 29.89 in 6.2 mi East 3.5 mph - N/A   Scattered Clouds
7:00 AM 80.6 °F 85.4 °F 73.4 °F 79% 29.89 in 6.2 mi SSE 4.6 mph - N/A   Scattered Clouds
8:00 AM 82.4 °F 89.5 °F 75.2 °F 79% 29.92 in 6.2 mi East 9.2 mph - N/A   Mostly Cloudy
9:00 AM 87.8 °F 97.6 °F 75.2 °F 66% 29.95 in 6.2 mi East 11.5 mph - N/A   Mostly Cloudy
10:00 AM 89.6 °F 98.2 °F 73.4 °F 59% 29.95 in 6.2 mi ESE 11.5 mph - N/A   Mostly Cloudy
11:00 AM 89.6 °F 99.8 °F 75.2 °F 62% 29.95 in 6.2 mi East 9.2 mph - N/A   Mostly Cloudy
12:00 PM 91.4 °F 102.5 °F 75.2 °F 59% 29.92 in 6.2 mi ENE 10.4 mph - N/A   Mostly Cloudy
1:00 PM 91.4 °F 102.5 °F 75.2 °F 59% 29.89 in 6.2 mi NE 12.7 mph - N/A   Mostly Cloudy
2:00 PM 84.2 °F 92.3 °F 75.2 °F 74% 29.89 in 6.2 mi ESE 6.9 mph - N/A Thunderstorm Thunderstorm
3:00 PM 87.8 °F 97.6 °F 75.2 °F 66% 29.86 in 6.2 mi ENE 9.2 mph - N/A   Mostly Cloudy
4:00 PM 87.8 °F 99.7 °F 77.0 °F 70% 29.86 in 6.2 mi ENE 10.4 mph - N/A   Mostly Cloudy
5:00 PM 82.4 °F 90.9 °F 77.0 °F 84% 29.86 in 6.2 mi East 10.4 mph - N/A   Mostly Cloudy
6:00 PM 80.6 °F 86.2 °F 75.2 °F 84% 29.86 in 6.2 mi ESE 4.6 mph - N/A   Mostly Cloudy
7:00 PM 80.6 °F 86.2 °F 75.2 °F 84% 29.89 in - ESE 4.6 mph - N/A   Clear
8:00 PM 80.6 °F 86.2 °F 75.2 °F 84% 29.92 in 6.2 mi SSE 3.5 mph - N/A   Mostly Cloudy
9:00 PM 78.8 °F - 75.2 °F 89% 29.95 in 6.2 mi South 3.5 mph - N/A   Scattered Clouds
10:00 PM 78.8 °F - 75.2 °F 89% 29.95 in 6.2 mi Calm Calm - N/A   Scattered Clouds
11:00 PM 80.6 °F 87.1 °F 77.0 °F 89% 29.95 in 6.2 mi East 5.8 mph - N/A   Scattered Clouds